DW1087 Weather Reports


Display with metric or nautical units.
time (UTC)temp
F
wind
direction
speed
MPH
gust
MPH
rain 1hr
in
rain 24hr
in
rain mn
in
humidity
%
barometer
mb
20180620015406 62 132 16.0 22.0 0.00 0.01 0.01 76 1014.5
20180620014939 62 115 18.0 22.0 0.00 0.01 0.01 76 1014.4
20180620014355 62 134 17.0 21.0 0.00 0.01 0.01 76 1014.5
20180620013847 62 120 16.0 23.0 0.00 0.01 0.01 76 1014.5
20180620013400 62 118 17.0 23.0 0.00 0.01 0.01 76 1014.5
20180620012853 62 107 17.0 22.0 0.00 0.01 0.01 76 1014.3
20180620012350 62 113 13.0 22.0 0.00 0.01 0.01 77 1014.4
20180620011843 62 109 15.0 22.0 0.00 0.01 0.01 77 1014.2
20180620011355 62 95 10.0 16.0 0.00 0.01 0.01 78 1014.5
20180620010912 62 94 8.0 16.0 0.00 0.01 0.01 77 1014.3
20180620010423 62 105 13.0 18.0 0.00 0.01 0.01 76 1014.3
20180620005856 62 103 9.0 18.0 0.00 0.02 0.01 76 1014.3
20180620005429 62 99 13.0 19.0 0.00 0.02 0.01 76 1014.3
20180620004846 62 112 16.0 21.0 0.00 0.02 0.01 76 1014.0
20180620004438 62 96 14.0 21.0 0.00 0.02 0.01 76 1014.0
20180620003848 62 102 16.0 20.0 0.00 0.02 0.01 76 1014.1
20180620003342 62 90 12.0 20.0 0.00 0.02 0.01 77 1014.3
20180620002934 62 95 12.0 21.0 0.00 0.02 0.01 77 1014.4
20180620002347 62 87 16.0 21.0 0.00 0.02 0.01 76 1014.5
20180620001841 62 87 15.0 20.0 0.00 0.02 0.01 77 1014.6
20180620001356 63 104 14.0 20.0 0.00 0.02 0.01 76 1014.6
20180620000849 63 107 14.0 18.0 0.00 0.02 0.01 76 1014.6
20180620000345 63 100 11.0 22.0 0.00 0.02 0.01 76 1014.6
20180619235900 63 80 15.0 22.0 0.00 0.02 0.01 76 1014.4
20180619235412 63 112 14.0 18.0 0.00 0.02 0.01 75 1014.2
20180619234902 63 101 12.0 18.0 0.00 0.02 0.01 74 1014.3
20180619234354 63 83 11.0 16.0 0.00 0.02 0.01 74 1014.4
20180619233845 64 101 11.0 17.0 0.00 0.02 0.01 74 1014.7
20180619233438 64 116 13.0 17.0 0.00 0.02 0.01 73 1015.0
20180619232930 64 113 11.0 13.0 0.00 0.02 0.01 72 1015.1
20180619232342 64 82 4.0 13.0 0.00 0.02 0.01 74 1015.2
20180619231855 64 90 8.0 14.0 0.00 0.02 0.01 73 1015.2
20180619231348 64 93 9.0 14.0 0.00 0.02 0.01 72 1015.1
20180619230922 65 113 10.0 13.0 0.00 0.02 0.01 72 1015.1
20180619230352 65 98 6.0 10.0 0.00 0.02 0.01 73 1014.9
20180619225848 65 103 5.0 13.0 0.00 0.02 0.01 73 1014.9
20180619225402 65 115 5.0 13.0 0.00 0.02 0.01 72 1014.9
20180619224855 65 105 5.0 11.0 0.00 0.02 0.01 71 1014.9
20180619224426 65 92 4.0 10.0 0.00 0.02 0.01 72 1015.1
20180619223900 65 74 5.0 14.0 0.00 0.02 0.01 72 1015.0
20180619223353 65 102 7.0 15.0 0.00 0.02 0.01 71 1014.8
20180619222850 65 111 9.0 16.0 0.00 0.02 0.01 71 1014.7
20180619222341 65 86 11.0 18.0 0.00 0.02 0.01 71 1014.6
20180619221855 65 88 12.0 19.0 0.00 0.02 0.01 71 1014.7
20180619221348 65 71 10.0 19.0 0.00 0.02 0.01 71 1014.6
20180619220941 66 89 12.0 17.0 0.00 0.02 0.01 69 1013.7
20180619220354 67 86 10.0 16.0 0.00 0.02 0.01 69 1013.7
20180619215926 67 99 11.0 16.0 0.00 0.02 0.01 68 1013.6
20180619215359 67 76 6.0 15.0 0.00 0.02 0.01 68 1013.7
20180619214852 66 103 6.0 14.0 0.00 0.02 0.01 72 1014.0
20180619214407 67 132 10.0 14.0 0.00 0.02 0.01 67 1014.6
20180619213938 67 69 4.0 10.0 0.00 0.02 0.01 67 1014.3
20180619213432 68 76 4.0 10.0 0.00 0.02 0.01 67 1014.4
20180619212941 67 89 3.0 12.0 0.00 0.02 0.01 68 1014.3
20180619212858 67 89 3.0 12.0 0.00 0.02 0.01 68 1014.3
20180619212411 68 72 9.0 12.0 0.00 0.02 0.01 66 1014.1
20180619211841 67 73 5.0 15.0 0.00 0.02 0.01 68 1013.8
20180619211416 67 95 8.0 16.0 0.00 0.02 0.01 66 1013.7
20180619210906 68 103 8.0 16.0 0.00 0.02 0.01 64 1013.5
20180619210400 68 94 10.0 15.0 0.00 0.02 0.01 65 1013.3
20180619205931 67 69 10.0 15.0 0.00 0.02 0.01 68 1013.4
20180619205424 67 113 11.0 15.0 0.00 0.02 0.01 66 1013.4
20180619204936 67 83 6.0 13.0 0.00 0.02 0.01 68 1013.6
20180619204346 65 81 5.0 17.0 0.00 0.02 0.01 71 1013.7
20180619203859 66 116 10.0 17.0 0.00 0.02 0.01 70 1013.8
20180619203412 66 107 7.0 14.0 0.00 0.02 0.01 66 1013.8
20180619202903 66 90 6.0 13.0 0.00 0.02 0.01 70 1013.6
20180619202415 65 134 8.0 16.0 0.00 0.02 0.01 73 1013.6
20180619201851 64 87 13.0 16.0 0.00 0.02 0.01 73 1013.7
20180619201403 64 105 8.0 14.0 0.00 0.02 0.01 75 1013.9
20180619200855 63 109 9.0 16.0 0.00 0.02 0.01 74 1014.1
20180619200348 63 103 9.0 18.0 0.00 0.02 0.01 76 1014.1
20180619195900 62 107 13.0 21.0 0.00 0.02 0.01 76 1014.3
20180619195353 62 119 14.0 21.0 0.00 0.02 0.01 77 1014.2
20180619194845 62 91 14.0 19.0 0.00 0.02 0.01 77 1014.3
20180619194418 62 111 13.0 20.0 0.00 0.02 0.01 78 1014.2
20180619193850 61 79 16.0 21.0 0.00 0.02 0.01 77 1014.2
20180619193347 62 105 17.0 21.0 0.00 0.02 0.01 76 1014.2
20180619192937 62 101 13.0 21.0 0.00 0.02 0.01 76 1014.1
20180619192351 62 99 15.0 24.0 0.00 0.02 0.01 74 1014.1
20180619191843 63 118 19.0 24.0 0.00 0.02 0.01 72 1014.0
20180619191356 63 117 12.0 19.0 0.00 0.02 0.01 77 1014.2
20180619190929 62 93 14.0 19.0 0.00 0.02 0.01 76 1014.2
20180619190419 62 132 13.0 21.0 0.00 0.02 0.01 78 1014.1
20180619185928 62 84 16.0 21.0 0.00 0.00 0.01 77 1014.1
20180619185341 61 109 15.0 19.0 0.00 0.00 0.01 77 1014.4
20180619184855 61 119 16.0 19.0 0.00 0.00 0.01 76 1014.4
20180619184427 62 101 10.0 14.0 0.00 0.00 0.01 77 1014.5
20180619183857 62 76 8.0 15.0 0.00 0.00 0.01 78 1014.6
20180619183353 61 111 11.0 19.0 0.00 0.00 0.01 79 1014.8
20180619182905 61 96 13.0 19.0 0.00 0.00 0.01 79 1014.3
20180619182342 61 109 12.0 16.0 0.00 0.00 0.01 79 1014.4
20180619181856 61 92 12.0 16.0 0.00 0.00 0.01 79 1014.6
20180619181429 61 115 12.0 16.0 0.00 0.00 0.01 81 1014.5
20180619180900 61 110 12.0 18.0 0.00 0.00 0.01 82 1014.6
20180619180413 61 103 12.0 18.0 0.00 0.00 0.01 81 1014.4
20180619175841 61 109 10.0 16.0 0.00 0.00 0.01 81 1014.6
20180619175354 61 94 11.0 14.0 0.00 0.00 0.01 82 1014.4
20180619174846 60 100 7.0 14.0 0.00 0.00 0.01 84 1014.6
20180619174341 60 118 10.0 14.0 0.00 0.00 0.01 82 1014.6
20180619173854 60 119 13.0 14.0 0.00 0.00 0.01 83 1014.7
20180619173351 60 128 10.0 12.0 0.00 0.00 0.01 82 1014.8
20180619172847 60 113 10.0 13.0 0.00 0.00 0.01 82 1014.8
20180619172439 60 110 9.0 13.0 0.00 0.00 0.01 83 1014.7
20180619171850 60 113 7.0 11.0 0.00 0.00 0.01 84 1014.8
20180619171342 60 123 7.0 11.0 0.00 0.00 0.01 81 1014.8
20180619170855 60 126 8.0 11.0 0.00 0.00 0.01 81 1014.8
20180619170411 60 126 7.0 11.0 0.00 0.00 0.01 82 1014.9
20180619165921 61 139 7.0 11.0 0.00 0.00 0.01 80 1015.0
20180619165354 61 150 7.0 10.0 0.00 0.00 0.01 82 1014.8
20180619164927 61 114 6.0 9.0 0.00 0.00 0.01 82 1014.9
20180619164357 61 191 6.0 10.0 0.00 0.00 0.01 80 1014.9
20180619163847 61 165 5.0 10.0 0.00 0.00 0.01 83 1014.8
20180619163419 61 157 5.0 11.0 0.00 0.00 0.01 84 1014.7
20180619162853 60 137 6.0 12.0 0.00 0.00 0.01 83 1014.6
20180619162438 60 132 9.0 12.0 0.00 0.00 0.01 81 1014.6
20180619161851 60 127 8.0 14.0 0.00 0.00 0.01 84 1014.5
20180619161343 60 153 10.0 18.0 0.00 0.00 0.01 84 1014.3
20180619160855 60 144 12.0 18.0 0.00 0.00 0.01 84 1014.4
20180619160346 60 174 11.0 16.0 0.00 0.00 0.01 85 1014.6
20180619155918 60 161 8.0 16.0 0.00 0.00 0.01 87 1014.8
20180619155348 60 142 9.0 15.0 0.00 0.00 0.01 85 1015.0
20180619154904 59 134 8.0 18.0 0.00 0.00 0.01 88 1015.0
20180619154435 59 165 11.0 19.0 0.00 0.00 0.01 88 1014.9
20180619153847 59 134 11.0 20.0 0.00 0.00 0.01 89 1014.8
20180619153342 59 130 16.0 20.0 0.00 0.00 0.01 89 1014.6
20180619152859 59 144 13.0 18.0 0.00 0.00 0.01 90 1014.8
20180619152351 58 117 13.0 17.0 0.00 0.00 0.01 90 1015.1
20180619151904 58 128 12.0 14.0 0.00 0.00 0.01 91 1015.3
20180619151338 58 125 11.0 13.0 0.00 0.00 0.01 91 1015.2
20180619150933 57 131 9.0 12.0 0.00 0.00 0.01 93 1015.2
20180619150422 57 126 10.0 12.0 0.00 0.00 0.01 93 1015.3
20180619145933 57 120 9.0 14.0 0.00 0.00 0.01 94 1015.4
20180619145342 56 136 11.0 16.0 0.00 0.00 0.01 95 1015.7
20180619144855 56 138 8.0 14.0 0.00 0.00 0.01 96 1016.0
20180619144411 55 132 11.0 15.0 0.00 0.00 0.01 96 1016.0
20180619143842 55 136 11.0 15.0 0.00 0.00 0.01 96 1015.9
20180619143354 55 111 10.0 15.0 0.00 0.00 0.01 97 1015.8
20180619142846 55 113 12.0 15.0 0.00 0.00 0.01 97 1015.6
20180619142343 54 114 10.0 14.0 0.00 0.00 0.01 97 1015.7
20180619141856 54 121 10.0 16.0 0.00 0.00 0.01 97 1015.9
20180619141409 54 128 12.0 16.0 0.00 0.00 0.01 98 1015.9
20180619140840 54 128 13.0 15.0 0.00 0.00 0.01 98 1015.8
20180619140415 54 134 11.0 17.0 0.00 0.00 0.01 98 1015.8
20180619135848 53 121 12.0 17.0 0.00 0.00 0.01 98 1015.8
20180619135400 53 123 12.0 17.0 0.00 0.00 0.01 98 1015.8
20180619134853 53 126 14.0 18.0 0.00 0.00 0.01 98 1015.8
20180619134425 53 126 14.0 18.0 0.00 0.00 0.01 98 1015.7
20180619133855 53 130 14.0 18.0 0.00 0.00 0.01 98 1015.7
20180619133431 53 121 14.0 17.0 0.00 0.00 0.01 98 1015.7
20180619132846 53 120 13.0 19.0 0.00 0.00 0.01 98 1015.7
20180619132418 52 119 16.0 19.0 0.00 0.00 0.01 98 1015.5
20180619131910 52 123 14.0 18.0 0.00 0.00 0.01 98 1015.6
20180619131421 52 123 14.0 18.0 0.00 0.00 0.01 98 1015.5
20180619130933 52 111 14.0 19.0 0.00 0.00 0.01 98 1015.5
20180619130342 52 128 15.0 19.0 0.00 0.00 0.01 98 1015.5
20180619125856 52 118 15.0 17.0 0.00 0.00 0.01 98 1015.5
20180619125428 52 128 13.0 17.0 0.00 0.00 0.01 98 1015.6
20180619124841 52 120 12.0 16.0 0.00 0.00 0.01 98 1015.5
20180619124353 52 125 10.0 16.0 0.00 0.00 0.01 98 1014.7
20180619123904 52 119 15.0 16.0 0.00 0.00 0.01 98 1014.5
20180619123358 52 117 12.0 19.0 0.00 0.00 0.01 98 1014.6
20180619122851 52 110 15.0 19.0 0.00 0.00 0.01 98 1014.5
20180619122403 52 117 14.0 18.0 0.00 0.00 0.01 98 1014.5
20180619121859 52 113 15.0 18.0 0.00 0.00 0.01 98 1014.4
20180619121351 52 115 13.0 17.0 0.00 0.00 0.01 98 1014.5
20180619120902 52 122 15.0 17.0 0.00 0.00 0.01 98 1014.6
20180619120354 52 113 13.0 18.0 0.00 0.00 0.01 98 1014.6
20180619115845 52 116 14.0 18.0 0.00 0.00 0.01 98 1014.6
20180619115358 52 121 13.0 18.0 0.00 0.00 0.01 97 1014.7
20180619114851 52 103 16.0 18.0 0.00 0.00 0.01 97 1014.4
20180619114343 52 115 13.0 16.0 0.00 0.00 0.01 97 1014.5
20180619113839 52 115 12.0 14.0 0.00 0.00 0.01 97 1014.4
20180619113354 52 105 11.0 15.0 0.00 0.00 0.01 98 1014.5
20180619112906 52 111 12.0 15.0 0.00 0.00 0.01 98 1014.4
20180619112436 52 126 11.0 16.0 0.00 0.00 0.01 97 1014.5
20180619111847 52 114 12.0 16.0 0.00 0.00 0.01 97 1014.5
20180619111442 52 91 13.0 15.0 0.00 0.00 0.01 97 1014.4
20180619110912 52 125 11.0 15.0 0.00 0.00 0.01 97 1014.5
20180619110343 52 112 11.0 16.0 0.00 0.00 0.01 97 1015.4
20180619105854 52 129 13.0 16.0 0.00 0.00 0.01 97 1015.4
20180619105347 52 123 11.0 17.0 0.00 0.00 0.01 97 1015.4
20180619104939 52 130 13.0 17.0 0.00 0.00 0.01 97 1015.4
20180619104414 52 116 12.0 16.0 0.00 0.00 0.01 97 1015.3
20180619103904 52 123 13.0 16.0 0.00 0.00 0.01 97 1015.5
20180619103359 52 123 13.0 16.0 0.00 0.00 0.01 97 1015.6
20180619102852 52 128 12.0 17.0 0.00 0.00 0.01 97 1015.4
20180619102412 52 116 14.0 17.0 0.00 0.00 0.01 97 1015.4
20180619101842 52 128 15.0 18.0 0.00 0.00 0.01 97 1015.5
20180619101415 52 126 14.0 19.0 0.00 0.00 0.01 97 1015.5
20180619100926 52 131 15.0 20.0 0.00 0.00 0.01 97 1015.5
20180619100417 52 119 15.0 20.0 0.00 0.00 0.01 97 1015.4
20180619095847 52 117 15.0 20.0 0.00 0.00 0.01 97 1015.4
20180619095400 52 129 16.0 20.0 0.00 0.00 0.01 97 1015.5
20180619094851 52 130 14.0 20.0 0.00 0.00 0.01 97 1015.5
20180619094345 52 116 15.0 20.0 0.00 0.00 0.01 97 1015.4
20180619093918 52 122 16.0 19.0 0.00 0.00 0.01 97 1015.4
20180619093352 52 123 16.0 19.0 0.00 0.00 0.01 97 1015.5
20180619092843 52 121 16.0 20.0 0.00 0.00 0.01 97 1015.5
20180619092435 52 130 17.0 21.0 0.00 0.00 0.01 97 1015.3
20180619091925 52 113 19.0 21.0 0.00 0.00 0.01 97 1015.4
20180619091341 52 121 17.0 21.0 0.00 0.00 0.01 97 1015.4
20180619090853 52 116 17.0 20.0 0.00 0.00 0.01 97 1015.4
20180619090405 52 113 16.0 20.0 0.00 0.00 0.01 97 1015.5
20180619085854 52 120 14.0 20.0 0.00 0.00 0.01 97 1015.5
20180619085405 52 114 15.0 18.0 0.00 0.00 0.01 97 1015.4
20180619084917 52 111 14.0 21.0 0.00 0.00 0.01 97 1015.5
20180619084408 52 111 16.0 21.0 0.00 0.00 0.01 97 1015.4
20180619083902 52 117 15.0 18.0 0.00 0.00 0.01 97 1015.5
20180619083353 52 123 12.0 17.0 0.00 0.00 0.01 97 1015.4
20180619082845 52 121 13.0 19.0 0.00 0.00 0.01 97 1015.3
20180619082356 52 114 14.0 20.0 0.00 0.00 0.01 97 1015.2
20180619081850 52 117 14.0 21.0 0.00 0.00 0.01 97 1015.2
20180619081346 52 128 16.0 21.0 0.00 0.00 0.01 97 1015.2
20180619080859 52 121 16.0 21.0 0.00 0.00 0.01 97 1015.2
20180619080353 52 111 16.0 21.0 0.00 0.00 0.01 97 1015.1
20180619075843 52 125 16.0 22.0 0.00 0.00 0.01 97 1015.1
20180619075416 52 121 17.0 22.0 0.00 0.00 0.01 97 1015.2
20180619074927 52 128 18.0 22.0 0.00 0.00 0.01 97 1015.4
20180619074418 52 119 19.0 22.0 0.01 0.00 0.01 97 1015.4
20180619073850 52 106 17.0 22.0 0.01 0.00 0.01 97 1015.5
20180619073342 52 111 15.0 22.0 0.01 0.00 0.01 97 1015.5
20180619072854 52 117 17.0 21.0 0.01 0.00 0.01 97 1015.4
20180619072351 52 115 15.0 23.0 0.01 0.00 0.01 97 1015.5
20180619071926 52 117 18.0 23.0 0.01 0.00 0.01 97 1015.5
20180619071433 52 128 17.0 20.0 0.01 0.00 0.01 97 1015.4
20180619070925 52 123 16.0 24.0 0.01 0.00 0.01 97 1015.5
20180619070402 52 126 18.0 24.0 0.01 0.00 0.01 97 1015.5
20180619065853 52 123 19.0 23.0 0.01 0.00 0.01 97 1015.5
20180619065345 52 123 18.0 23.0 0.01 0.00 0.01 97 1015.6
20180619064858 52 112 19.0 23.0 0.01 0.00 0.01 97 1015.6
20180619064352 52 103 17.0 21.0 0.00 0.00 0.00 96 1015.6
20180619063904 52 123 16.0 24.0 0.00 0.00 0.00 96 1015.5
20180619063356 52 115 19.0 24.0 0.00 0.00 0.00 96 1015.5
20180619062852 52 115 19.0 23.0 0.00 0.00 0.00 96 1015.5
20180619062343 52 113 17.0 21.0 0.00 0.00 0.00 96 1015.6
20180619061840 52 105 16.0 25.0 0.00 0.00 0.00 96 1015.6
20180619061356 52 117 18.0 25.0 0.00 0.00 0.05 96 1015.6
20180619060928 52 106 19.0 25.0 0.00 0.00 0.05 96 1015.5
20180619060438 52 109 21.0 25.0 0.00 0.00 0.05 96 1015.3
20180619055909 52 123 19.0 24.0 0.00 0.00 0.05 96 1015.4
20180619055420 52 121 18.0 24.0 0.00 0.00 0.05 96 1015.4
20180619054852 52 121 17.0 23.0 0.00 0.00 0.05 95 1015.5
20180619054407 52 110 17.0 25.0 0.00 0.00 0.05 95 1015.4
20180619053838 52 114 16.0 26.0 0.00 0.00 0.05 95 1015.3
20180619053414 52 111 18.0 26.0 0.00 0.00 0.05 95 1015.3
20180619052905 52 121 16.0 26.0 0.00 0.00 0.05 95 1015.3
20180619052416 52 108 18.0 27.0 0.00 0.00 0.05 95 1015.1
20180619051907 52 111 23.0 27.0 0.00 0.00 0.05 95 1015.1
20180619051421 53 114 21.0 27.0 0.00 0.00 0.05 95 1015.1
20180619050932 53 102 20.0 27.0 0.00 0.00 0.05 95 1014.9
20180619050341 53 123 20.0 26.0 0.00 0.00 0.05 95 1015.1
20180619045911 53 105 20.0 24.0 0.00 0.00 0.05 94 1015.1
20180619045422 53 109 20.0 23.0 0.00 0.00 0.05 94 1015.0
20180619044856 53 104 18.0 23.0 0.00 0.00 0.05 94 1015.1
20180619044351 53 103 18.0 24.0 0.00 0.00 0.05 94 1015.2
20180619043847 53 104 17.0 24.0 0.00 0.00 0.05 94 1015.3
20180619043359 53 96 17.0 24.0 0.00 0.00 0.05 94 1015.4
20180619042852 53 107 18.0 24.0 0.00 0.00 0.05 93 1015.3
20180619042344 53 105 18.0 25.0 0.00 0.00 0.05 93 1015.3
20180619041915 53 70 18.0 25.0 0.00 0.00 0.05 94 1015.2
20180619041346 53 98 21.0 25.0 0.00 0.00 0.05 94 1015.0
20180619040920 53 111 20.0 25.0 0.00 0.00 0.05 94 1015.2
20180619040410 53 111 20.0 28.0 0.00 0.00 0.05 94 1015.3
20180619035843 53 104 21.0 28.0 0.00 0.00 0.05 94 1015.2
20180619035356 53 105 22.0 28.0 0.00 0.00 0.05 94 1014.7
20180619034849 53 114 22.0 28.0 0.00 0.00 0.05 94 1014.7
20180619034341 53 114 22.0 29.0 0.00 0.00 0.05 94 1014.8
20180619033854 53 115 21.0 28.0 0.00 0.00 0.05 94 1014.7
20180619033350 53 134 21.0 28.0 0.00 0.00 0.05 94 1014.6
20180619032841 53 113 22.0 30.0 0.00 0.00 0.05 93 1014.3
20180619032436 53 113 24.0 30.0 0.00 0.00 0.05 93 1014.3
20180619031845 53 118 21.0 26.0 0.00 0.00 0.05 93 1014.5
20180619031421 53 125 20.0 28.0 0.00 0.00 0.05 93 1014.4
20180619030934 53 117 23.0 28.0 0.00 0.00 0.05 93 1014.3
20180619030344 53 118 20.0 28.0 0.00 0.00 0.05 93 1014.4
20180619025934 53 112 23.0 28.0 0.00 0.00 0.05 93 1014.5
20180619025349 53 126 21.0 28.0 0.00 0.00 0.05 93 1014.4
20180619024840 53 109 23.0 28.0 0.00 0.00 0.05 94 1014.5
20180619024352 53 117 21.0 28.0 0.00 0.00 0.05 94 1014.5
20180619023904 53 122 22.0 29.0 0.00 0.00 0.05 94 1014.5
20180619023355 53 130 22.0 31.0 0.00 0.00 0.05 94 1014.4
20180619022847 53 109 23.0 31.0 0.00 0.00 0.05 94 1014.3
20180619022341 53 112 23.0 30.0 0.00 0.00 0.05 94 1014.4
20180619021852 53 122 23.0 29.0 0.00 0.00 0.05 94 1014.0
20180619021405 53 115 20.0 28.0 0.00 0.00 0.05 94 1014.4
20180619020840 53 125 22.0 30.0 0.00 0.00 0.05 94 1014.4
20180619020355 53 125 23.0 31.0 0.00 0.00 0.05 94 1014.5
20180619015845 53 132 23.0 32.0 0.00 0.00 0.05 95 1014.5